[[{"header":{"parameterUnit":"m.s-1","parameterCategory":1,"la1":30.2991,"la2":30.254,"lo1":-89.0895,"lo2":-89.0444,"dx":0.0017,"dy":0.0017,"nx":28,"ny":28,"refTime":"2023-01-07T03:00:00:Z","depth":0,"parameterNumber":2,"parameterNumberName":"U-component_of_WINDS"},"data":[0,0,0,0,0,0,0,0,0,0,0,0,0,0,0,0,0,0,0,0,0,0,0,0,0,0,0,0,0,0,0,0,0,0,0,0,0,0,0,0,0,0,0,0,0,0,0,0,0,0,0,0,0,0,0,0,0,0,0.0258,0.0257,0,0.0231,0.023,0.023,0.0212,0.0212,0.0212,0.0212,0.0184,0.0183,0.0183,0,0,0,0,0,0,0,0,0,0,0,0,0,0.0293,0.0292,0.0258,0.0257,0.0257,0.0231,0.023,0.023,0.0212,0.0212,0.0212,0.0212,0.0184,0.0183,0.0182,0,0,0,0,0,0,0,0,0,0,0,0,0,0.0273,0.0292,0.0258,0.0245,0.0244,0.0231,0.023,0.023,0.0212,0.0212,0.0212,0.0212,0.0184,0.0183,0.0182,0.018,0,0,0.0179,0.0179,0,0,0,0,0,0,0,0,0.0274,0.0272,0.0247,0.0246,0.0244,0.0225,0.0232,0.0213,0.0212,0.0224,0.0212,0.0212,0.0197,0.0195,0.0191,0.0178,0.0177,0.0179,0.0179,0.0178,0.0178,0,0,0,0,0,0,0,0.0276,0.0273,0.0247,0.0247,0.0245,0.024,0.0237,0.0229,0.0212,0.0223,0.0222,0.0219,0.0197,0.0192,0.019,0.0177,0.0179,0.0178,0.0178,0.0177,0.016,0.016,0,0,0,0,0,0,0.0279,0.0274,0.0248,0.0246,0.0259,0.024,0.0236,0.0231,0.0212,0.0209,0.0219,0.0218,0.0193,0.0191,0.0189,0.0184,0.0178,0.0177,0.0177,0.016,0.016,0.016,0,0,0,0,0,0,0.028,0.0277,0.0249,0.026,0.0256,0.0239,0.0234,0.0231,0.0226,0.0209,0.0206,0.0217,0.0193,0.019,0.0182,0.0183,0.0177,0.0176,0.016,0.016,0.016,0.0174,0,0,0,0,0,0,0.0281,0.0277,0.0276,0.026,0.0255,0.0243,0.0234,0.023,0.0224,0.0223,0.0206,0.0204,0.0193,0.0183,0.0181,0.0181,0.0175,0.0159,0.016,0.016,0.0174,0.0175,0.0176,0,0,0,0,0,0.0282,0.0282,0.0277,0.0273,0.0254,0.0243,0.024,0.0228,0.0224,0.0223,0.0212,0.0204,0.0183,0.0183,0.018,0.018,0.0159,0.016,0.016,0.0173,0.0175,0.0176,0,0,0,0,0,0,0.0299,0.0279,0.0273,0.0268,0.0257,0.024,0.0238,0.023,0.0221,0.022,0.0205,0.0201,0.0194,0.0186,0.0186,0.0176,0.017,0.017,0.0181,0.0183,0.0184,0.0186,0.0175,0,0,0,0,0,0.0302,0.0295,0.0278,0.0274,0.0269,0.0255,0.025,0.0241,0.0229,0.0225,0.0213,0.0202,0.0193,0.0187,0.0178,0.0172,0.0168,0.0171,0.0172,0.0173,0.0173,0.0168,0.0169,0.0161,0.0161,0.0161,0,0,0.0308,0.0296,0.0293,0.0277,0.0268,0.0261,0.0251,0.0244,0.0238,0.0224,0.0215,0.0206,0.0193,0.0186,0.0182,0.0179,0.0174,0.0173,0.0174,0.0173,0.0169,0.0169,0.017,0.0161,0.0161,0.0161,0,0,0.0315,0.0306,0.0302,0.0293,0.0279,0.0269,0.0268,0.0252,0.0245,0.0236,0.0225,0.0218,0.0203,0.0193,0.0186,0.0189,0.0181,0.0186,0.0192,0.0188,0.0189,0.0189,0.019,0.019,0.0186,0.0186,0.0186,0,0.0325,0.0313,0.03,0.0294,0.0287,0.0273,0.0268,0.026,0.0244,0.0239,0.0236,0.0216,0.0206,0.0196,0.0196,0.0191,0.0189,0.0188,0.019,0.019,0.019,0.019,0.0191,0.0187,0.0187,0.0187,0.0187,0,0.0325,0.0317,0.0315,0.03,0.0293,0.0287,0.0273,0.0267,0.0259,0.0249,0.024,0.0227,0.0215,0.0212,0.0204,0.02,0.0198,0.0193,0.0187,0.0192,0.0192,0.0192,0.0188,0.0188,0.0188,0.0187,0,0,0.0342,0.0319,0.0319,0.0311,0.0295,0.0288,0.0282,0.0269,0.0264,0.0254,0.0247,0.0234,0.0228,0.022,0.0211,0.0207,0.0209,0.0202,0.0201,0.0203,0.0204,0.0208,0.0208,0.0204,0.0204,0.0204,0.0205,0,0.0347,0.0334,0.0322,0.0313,0.0306,0.0292,0.0286,0.0275,0.0266,0.0257,0.0247,0.0237,0.0231,0.0226,0.0222,0.021,0.0209,0.021,0.0197,0.0197,0.0201,0.0208,0.0213,0.0214,0.0205,0.0205,0.0204,0,0.035,0.034,0.0331,0.0314,0.031,0.0305,0.0292,0.0285,0.0272,0.0265,0.0256,0.0246,0.0237,0.0232,0.022,0.0221,0.0215,0.0208,0.0208,0.0206,0.0201,0.0206,0.0215,0.0215,0.0204,0.0204,0.0204,0,0.0363,0.0347,0.0339,0.0333,0.0314,0.031,0.0302,0.0288,0.0282,0.027,0.0266,0.0254,0.0247,0.0237,0.0224,0.0222,0.0213,0.0207,0.0206,0.0207,0.0205,0.0205,0.0212,0.0202,0.0202,0.0202,0.0202,0,0.0369,0.0364,0.0344,0.0339,0.0333,0.0319,0.0312,0.0303,0.0291,0.0283,0.0271,0.0264,0.0248,0.0239,0.0228,0.0219,0.0216,0.021,0.0207,0.0211,0.0212,0.0207,0.0206,0.0202,0.0202,0.0202,0.0202,0,0.0382,0.0369,0.0359,0.0342,0.0337,0.0333,0.0318,0.0312,0.0302,0.0292,0.0289,0.0273,0.0262,0.0247,0.0232,0.0225,0.0216,0.0212,0.0221,0.0219,0.0219,0.0219,0.0223,0.0222,0.0213,0.0213,0.0213,0,0.0386,0.0382,0.0364,0.0358,0.035,0.0341,0.0334,0.032,0.0313,0.0297,0.0293,0.0281,0.027,0.0252,0.0239,0.0226,0.0222,0.0224,0.022,0.0223,0.0221,0.0221,0.0221,0.0225,0.0225,0.0225,0.0225,0,0.0395,0.0389,0.0379,0.0367,0.0359,0.0349,0.0338,0.0334,0.0317,0.031,0.0298,0.029,0.0273,0.0261,0.0247,0.0238,0.0228,0.0227,0.0226,0.0229,0.0234,0.0231,0.0223,0.0227,0.0227,0.0226,0.0226,0.0226,0.0404,0.0399,0.0386,0.0375,0.0365,0.0355,0.0349,0.0338,0.0328,0.0314,0.0305,0.0294,0.028,0.026,0.0251,0.0241,0.0238,0.0237,0.0236,0.0236,0.0237,0.0236,0.0238,0.0238,0.0238,0.0238,0.0238,0,0.0412,0.0402,0.0393,0.0378,0.037,0.0362,0.0349,0.0342,0.0333,0.032,0.031,0.0296,0.0284,0.0269,0.0256,0.0251,0.0246,0.0248,0.0248,0.0246,0.0241,0.0243,0.0252,0.0252,0.0252,0.0252,0.0252,0.0252,0.0415,0.0406,0.0398,0.0384,0.0375,0.0363,0.0357,0.0347,0.0337,0.0322,0.0312,0.0303,0.0289,0.0275,0.0263,0.0259,0.0254,0.0257,0.0252,0.0247,0.0246,0.0245,0.0247,0.0256,0.0256,0.0257,0.0257,0.0257]},{"header":{"parameterUnit":"m.s-1","parameterCategory":1,"la1":30.2991,"la2":30.254,"lo1":-89.0895,"lo2":-89.0444,"dx":0.0017,"dy":0.0017,"nx":28,"ny":28,"refTime":"2023-01-07T03:00:00:Z","depth":0,"parameterNumber":3,"parameterNumberName":"V-component_of_WINDS"},"data":[0,0,0,0,0,0,0,0,0,0,0,0,0,0,0,0,0,0,0,0,0,0,0,0,0,0,0,0,0,0,0,0,0,0,0,0,0,0,0,0,0,0,0,0,0,0,0,0,0,0,0,0,0,0,0,0,0,0,3.1169,3.117,0,3.1231,3.1232,3.1233,3.1223,3.1222,3.1221,3.122,3.1287,3.129,3.1292,0,0,0,0,0,0,0,0,0,0,0,0,0,3.1044,3.1046,3.1169,3.117,3.117,3.1231,3.1232,3.1233,3.1223,3.1222,3.122,3.1219,3.1286,3.1289,3.1293,0,0,0,0,0,0,0,0,0,0,0,0,0,3.1101,3.1047,3.1169,3.1173,3.1174,3.1231,3.1232,3.1233,3.1223,3.1222,3.122,3.1219,3.1285,3.1289,3.1293,3.1352,0,0,3.1306,3.1308,0,0,0,0,0,0,0,0,3.1098,3.1106,3.1171,3.1172,3.1174,3.1218,3.1213,3.1273,3.1224,3.1205,3.122,3.1218,3.1265,3.1271,3.1287,3.1355,3.1358,3.1306,3.1309,3.1311,3.1312,0,0,0,0,0,0,0,3.1094,3.1103,3.1194,3.1172,3.1174,3.1172,3.1179,3.1224,3.1243,3.1206,3.1205,3.1213,3.1266,3.1282,3.1288,3.1359,3.1306,3.131,3.1313,3.1314,3.1479,3.148,0,0,0,0,0,0,3.1089,3.11,3.1192,3.1196,3.1131,3.1176,3.1183,3.1205,3.1243,3.1247,3.1214,3.1212,3.1276,3.1283,3.129,3.1362,3.1311,3.1315,3.1317,3.1477,3.1479,3.1481,0,0,0,0,0,0,3.1086,3.1097,3.1189,3.1148,3.1159,3.118,3.1205,3.1207,3.1224,3.1249,3.1253,3.1228,3.1275,3.1284,3.1336,3.1364,3.1317,3.132,3.1475,3.1477,3.148,3.1505,0,0,0,0,0,0,3.1082,3.1096,3.1118,3.1148,3.1161,3.1233,3.1206,3.121,3.1231,3.1229,3.1262,3.1267,3.1275,3.133,3.1341,3.1369,3.1324,3.1472,3.1476,3.1479,3.1502,3.1508,3.1513,0,0,0,0,0,3.1078,3.1123,3.1119,3.113,3.1189,3.1235,3.1243,3.125,3.1233,3.1256,3.1272,3.1265,3.1359,3.1336,3.1347,3.1377,3.1471,3.1475,3.1479,3.1499,3.1507,3.1513,0,0,0,0,0,0,3.1097,3.1127,3.1123,3.1179,3.1204,3.1233,3.1262,3.1258,3.129,3.1287,3.1295,3.1303,3.1356,3.1372,3.1345,3.1436,3.1413,3.1419,3.1424,3.1431,3.1437,3.1433,3.1327,0,0,0,0,0,3.1107,3.1141,3.1166,3.1213,3.1226,3.1241,3.1262,3.1265,3.1292,3.1303,3.1323,3.1351,3.1386,3.141,3.1444,3.1503,3.1511,3.153,3.1536,3.1541,3.1547,3.158,3.1589,3.1495,3.1495,3.1494,0,0,3.113,3.115,3.1171,3.1217,3.1237,3.1273,3.1251,3.1289,3.1316,3.131,3.136,3.1375,3.1406,3.1463,3.1488,3.1477,3.1574,3.1546,3.1549,3.1553,3.1585,3.1594,3.1602,3.1497,3.1497,3.1496,0,0,3.1189,3.1207,3.1248,3.1269,3.1299,3.1309,3.1319,3.1348,3.1358,3.1408,3.1403,3.1436,3.1497,3.1519,3.1539,3.1606,3.1601,3.1617,3.1648,3.1681,3.1688,3.1695,3.1719,3.1728,3.1622,3.1622,3.1622,0,3.1213,3.1266,3.127,3.1309,3.133,3.1324,3.1366,3.1386,3.1427,3.1441,3.1428,3.1504,3.1525,3.1587,3.1603,3.1618,3.1631,3.1613,3.1686,3.1693,3.1699,3.1723,3.1732,3.1624,3.1624,3.1624,3.1623,0,3.1294,3.1331,3.1361,3.1398,3.1422,3.1463,3.1475,3.1499,3.15,3.1511,3.1563,3.1587,3.1626,3.1641,3.1643,3.1703,3.1695,3.1684,3.1661,3.171,3.1732,3.1741,3.1626,3.1626,3.1625,3.1625,0,0,3.1369,3.1407,3.1418,3.1435,3.1467,3.1496,3.1537,3.1573,3.1594,3.1622,3.1657,3.1708,3.1698,3.172,3.1724,3.1753,3.1805,3.1738,3.1739,3.175,3.1873,3.1882,3.1892,3.1801,3.1803,3.1805,3.1871,0,3.1431,3.1501,3.1506,3.157,3.1604,3.1599,3.1634,3.1658,3.167,3.1702,3.1715,3.1752,3.1735,3.1749,3.1776,3.1792,3.183,3.1788,3.1835,3.1837,3.1828,3.1904,3.1913,3.1975,3.188,3.1881,3.1882,0,3.1514,3.1543,3.1609,3.1636,3.1651,3.1683,3.1717,3.1746,3.1774,3.1781,3.1805,3.1805,3.1848,3.1822,3.1882,3.1853,3.1873,3.1884,3.1886,3.1892,3.1863,3.1912,3.1994,3.2004,3.1896,3.1895,3.1894,0,3.1562,3.1618,3.1665,3.1679,3.1712,3.1734,3.1749,3.1775,3.1797,3.1827,3.1841,3.1876,3.1896,3.1924,3.1934,3.1914,3.1993,3.1968,3.2001,3.2001,3.2019,3.2018,3.2106,3.203,3.203,3.203,3.203,0,3.1632,3.1674,3.1686,3.1716,3.1762,3.1768,3.1814,3.1828,3.185,3.1883,3.188,3.1911,3.1922,3.1955,3.1964,3.2012,3.2021,3.2028,3.203,3.2029,3.2028,3.2043,3.2039,3.2032,3.2032,3.2031,3.2031,0,3.1694,3.1705,3.1756,3.1782,3.1789,3.1822,3.1845,3.1874,3.1885,3.1926,3.1936,3.1954,3.1992,3.2005,3.2052,3.2057,3.2114,3.2112,3.2105,3.2105,3.2138,3.2135,3.2239,3.2254,3.2167,3.2168,3.2169,0,3.1739,3.177,3.1799,3.182,3.1835,3.1869,3.1891,3.1898,3.1921,3.1954,3.1979,3.2017,3.2048,3.211,3.2128,3.2164,3.2163,3.2197,3.2169,3.2167,3.2165,3.2163,3.2167,3.2203,3.2204,3.2205,3.2205,0,3.1817,3.182,3.1851,3.1883,3.1909,3.1935,3.1961,3.1978,3.1989,3.2015,3.2054,3.2078,3.2125,3.2163,3.22,3.2216,3.2213,3.2214,3.2224,3.2223,3.2218,3.2222,3.212,3.2212,3.2211,3.2211,3.221,3.221,3.1873,3.19,3.1925,3.1959,3.1978,3.2002,3.203,3.2044,3.2075,3.2114,3.2116,3.2158,3.2185,3.2234,3.2252,3.2286,3.2276,3.229,3.2294,3.2297,3.23,3.2212,3.2293,3.2292,3.2292,3.2292,3.2292,0,3.1952,3.1967,3.1998,3.2033,3.206,3.2052,3.208,3.2104,3.214,3.2165,3.2194,3.2239,3.2276,3.2296,3.2333,3.2356,3.2356,3.2366,3.2365,3.2369,3.2306,3.2295,3.2366,3.2366,3.2366,3.2366,3.2366,3.2366,3.1996,3.2042,3.2048,3.2104,3.2119,3.2159,3.2176,3.2198,3.2217,3.2267,3.2297,3.2309,3.2332,3.2371,3.2405,3.241,3.2424,3.2435,3.244,3.2381,3.2373,3.2366,3.2355,3.2438,3.2438,3.25,3.25,3.2501]}]]